View from above orbital plane
|
View from above satellite
|
Ground track
|
The orbit data is extracted from the following two-line orbital elements,
1 10967U 78064A 21109.90733843 -.00000023 00000-0 33438-4 0 9999
2 10967 107.9996 351.3456 0002689 268.6148 91.4688 14.43872168248748
Epoch (UTC): | 19 April 2021 21:46:34 |
Eccentricity: | 0.0002689 |
inclination: | 107.9996° |
perigee height: | 744 km |
apogee height: | 747 km |
right ascension of ascending node: | 351.3456° |
argument of perigee: | 268.6148° |
revolutions per day: | 14.43872168 |
mean anomaly at epoch: | 91.4688° |
orbit number at epoch: | 24874 |
The dashed part of the orbit path shows where the satellite is in the earth's shadow,
|
|